Date String (YYYY-MM-DD hh:mm:ss) UTC,Instrument flags,Ambient pressure (hPa),Sample flow (lpm),Bypass flow (lpm),Sample temperature (°C),Ambient temperature (°C),ASC tube jacket temperature (°C),LED temperature (°C),Box temperature (°C),Sample RH (%),Span deviation,Mass concentration (μg/m³),Mass concentration (μg/m³),Mass concentration (μg/m³)
DateTimeUTC,F1_M11,P_M11,Q1_M11,Q2_M11,T1_M11,T2_M11,T3_M11,T4_M11,T5_M11,U1_M11,ZSPAN_M11,X0_M11,X2_M11,X1_M11
2021-11-07 06:00:00,,0824.2,5.00,0.00,30.1,29.1,00.0,39.1,31.7,05.5,0000.0,0003.15,0001.56,0001.04
2021-11-07 06:01:00,,0824.2,4.99,0.00,30.1,29.1,00.0,39.1,31.8,05.5,0000.0,0002.91,0001.54,0001.03
2021-11-07 06:02:00,,0824.2,5.01,0.00,30.1,29.1,00.0,39.1,31.7,05.6,0000.0,0003.64,0001.52,0001.02
2021-11-07 06:03:00,,0824.2,5.00,0.00,30.0,29.1,00.0,39.1,31.7,05.6,0000.0,0004.13,0001.47,0001.02
2021-11-07 06:04:00,,0824.3,4.98,0.00,30.1,29.1,00.0,39.1,31.7,05.4,0000.0,0003.97,0001.41,0001.00
2021-11-07 06:05:00,,0824.3,5.00,0.00,30.1,29.1,00.0,39.1,31.8,05.3,0000.0,0003.83,0001.35,0000.99
2021-11-07 06:06:00,,0824.2,5.00,0.00,30.1,29.1,00.0,39.1,31.7,05.4,0000.0,0003.89,0001.35,0000.99
2021-11-07 06:07:00,,0824.2,5.00,0.00,30.1,29.1,00.0,39.1,31.7,05.5,0000.0,0003.94,0001.37,0001.00
2021-11-07 06:08:00,,0824.2,5.00,0.00,30.1,29.1,00.0,39.1,31.7,05.5,0000.0,0003.53,0001.29,0001.00
2021-11-07 06:09:00,,0824.2,5.00,0.00,30.1,29.1,00.0,39.1,31.7,05.4,0000.0,0003.47,0001.23,0000.99
2021-11-07 06:10:00,,0824.3,4.99,0.00,30.0,29.1,00.0,39.1,31.7,05.1,0000.0,0003.40,0001.18,0000.97
2021-11-07 06:11:00,,0824.3,5.00,0.00,30.1,29.1,00.0,39.1,31.7,05.1,0000.0,0003.24,0001.15,0000.96
2021-11-07 06:12:00,,0824.2,5.00,0.00,30.0,29.1,00.0,39.1,31.7,05.0,0000.0,0003.16,0001.13,0000.95
2021-11-07 06:13:00,,0824.1,5.00,0.00,30.0,29.1,00.0,39.1,31.8,04.9,0000.0,0002.65,0001.12,0000.94
2021-11-07 06:14:00,,0824.1,5.00,0.00,30.1,29.1,00.0,39.1,31.7,04.9,0000.0,0003.17,0001.13,0000.94
2021-11-07 06:15:00,,0824.1,5.01,0.00,30.0,29.1,00.0,39.1,31.7,04.8,0000.0,0003.37,0001.16,0000.94
2021-11-07 06:16:00,,0824.0,5.00,0.00,30.0,29.1,00.0,39.1,31.7,05.1,0000.0,0003.43,0001.15,0000.93
2021-11-07 06:17:00,,0824.1,5.00,0.00,30.0,29.1,00.0,39.1,31.7,05.1,0000.0,0003.45,0001.16,0000.93
2021-11-07 06:18:00,,0824.1,5.00,0.00,30.0,29.1,00.0,39.1,31.7,05.0,0000.0,0003.50,0001.15,0000.91
2021-11-07 06:19:00,,0824.1,5.00,0.00,30.0,29.1,00.0,39.1,31.8,04.8,0000.0,0003.54,0001.17,0000.91
2021-11-07 06:20:00,,0824.0,5.00,0.00,30.0,29.1,00.0,39.1,31.7,04.7,0000.0,0003.39,0001.14,0000.90
2021-11-07 06:21:00,,0824.0,5.00,0.00,30.0,29.1,00.0,39.1,31.7,04.7,0000.0,0003.47,0001.17,0000.90
2021-11-07 06:22:00,,0824.1,4.99,0.00,30.1,29.1,00.0,39.1,31.7,04.7,0000.0,0003.57,0001.19,0000.90
2021-11-07 06:23:00,,0824.0,5.02,0.00,30.1,29.2,00.0,39.1,31.7,04.7,0000.0,0003.57,0001.18,0000.90
2021-11-07 06:24:00,,0824.0,5.00,0.00,30.1,29.2,00.0,39.1,31.7,04.6,0000.0,0003.38,0001.17,0000.90
2021-11-07 06:25:00,,0824.1,5.00,0.00,30.1,29.2,00.0,39.1,31.8,04.9,0000.0,0002.20,0001.17,0000.90
2021-11-07 06:26:00,,0824.1,5.01,0.00,30.1,29.2,00.0,39.1,31.7,05.0,0000.0,0002.07,0001.16,0000.90
2021-11-07 06:27:00,,0824.1,5.00,0.00,30.1,29.1,00.0,39.1,31.7,05.0,0000.0,0001.96,0001.16,0000.90
2021-11-07 06:28:00,,0824.1,5.02,0.00,30.0,29.1,00.0,39.1,31.7,04.9,0000.0,0001.81,0001.13,0000.90
2021-11-07 06:29:00,,0824.2,5.00,0.00,30.0,29.1,00.0,39.1,31.7,05.2,0000.0,0001.67,0001.11,0000.91
2021-11-07 06:30:00,,0824.1,5.01,0.00,30.0,29.1,00.0,39.1,31.7,05.0,0000.0,0001.63,0001.08,0000.90
2021-11-07 06:31:00,,0824.1,5.01,0.00,30.0,29.1,00.0,39.1,31.7,04.9,0000.0,0001.63,0001.07,0000.90
2021-11-07 06:32:00,,0824.1,5.00,0.00,30.0,29.1,00.0,39.1,31.7,04.8,0000.0,0001.50,0001.05,0000.90
2021-11-07 06:33:00,,0824.1,5.00,0.00,30.0,29.1,00.0,39.1,31.7,04.8,0000.0,0001.36,0001.02,0000.90
2021-11-07 06:34:00,,0824.1,4.99,0.00,30.0,29.1,00.0,39.1,31.7,04.7,0000.0,0001.34,0001.02,0000.89
2021-11-07 06:35:00,,0824.0,5.00,0.00,30.0,29.1,00.0,39.1,31.7,04.6,0000.0,0001.38,0001.03,0000.90
2021-11-07 06:36:00,,0823.9,4.99,0.00,30.0,29.1,00.0,39.1,31.7,04.6,0000.0,0001.30,0001.02,0000.90
2021-11-07 06:37:00,,0823.8,5.01,0.00,30.0,29.1,00.0,39.1,31.7,04.5,0000.0,0001.28,0001.01,0000.88
2021-11-07 06:38:00,,0823.8,5.01,0.00,30.0,29.1,00.0,39.1,31.8,04.5,0000.0,0001.27,0001.00,0000.88
2021-11-07 06:39:00,,0823.7,5.00,0.00,30.0,29.1,00.0,39.1,31.7,04.5,0000.0,0001.31,0000.99,0000.86
2021-11-07 06:40:00,,0823.8,5.00,0.00,30.0,29.1,00.0,39.1,31.7,04.5,0000.0,0001.42,0001.00,0000.85
2021-11-07 06:41:00,,0824.0,4.99,0.00,30.0,29.1,00.0,39.1,31.7,04.6,0000.0,0001.67,0001.02,0000.85
2021-11-07 06:42:00,,0823.9,5.01,0.00,30.0,29.1,00.0,39.1,31.7,04.8,0000.0,0001.87,0001.02,0000.84
2021-11-07 06:43:00,,0824.0,4.99,0.00,30.0,29.1,00.0,39.1,31.7,04.9,0000.0,0001.87,0001.01,0000.83
2021-11-07 06:44:00,,0823.9,5.00,0.00,30.0,29.1,00.0,39.1,31.7,05.0,0000.0,0001.91,0001.03,0000.83
2021-11-07 06:45:00,,0823.7,5.01,0.00,30.0,29.1,00.0,39.1,31.7,05.1,0000.0,0001.95,0001.05,0000.84
2021-11-07 06:46:00,,0823.7,4.99,0.00,30.0,29.1,00.0,39.1,31.7,04.8,0000.0,0001.95,0001.05,0000.84
2021-11-07 06:47:00,,0823.7,4.99,0.00,30.0,29.1,00.0,39.1,31.7,04.8,0000.0,0001.98,0001.06,0000.85
2021-11-07 06:48:00,,0823.7,5.00,0.00,30.0,29.1,00.0,39.1,31.7,04.8,0000.0,0002.13,0001.12,0000.85
2021-11-07 06:49:00,,0823.7,4.99,0.00,30.0,29.1,00.0,39.1,31.7,04.7,0000.0,0002.22,0001.16,0000.85
2021-11-07 06:50:00,,0823.7,5.00,0.00,30.0,29.1,00.0,39.1,31.7,04.6,0000.0,0002.19,0001.17,0000.86
2021-11-07 06:51:00,,0823.7,5.01,0.00,30.0,29.1,00.0,39.1,31.7,04.7,0000.0,0002.13,0001.17,0000.86
2021-11-07 06:52:00,,0823.7,4.99,0.00,30.0,29.1,00.0,39.1,31.7,04.7,0000.0,0002.01,0001.15,0000.87
2021-11-07 06:53:00,,0823.8,4.99,0.00,30.0,29.0,00.0,39.1,31.6,04.7,0000.0,0001.73,0001.16,0000.88
2021-11-07 06:54:00,,0823.7,5.01,0.00,29.9,29.0,00.0,39.1,31.6,04.8,0000.0,0001.80,0001.17,0000.88
2021-11-07 06:55:00,,0823.7,4.99,0.00,29.9,29.0,00.0,39.1,31.6,04.7,0000.0,0001.80,0001.17,0000.88
2021-11-07 06:56:00,,0823.7,5.01,0.00,29.9,29.0,00.0,39.0,31.6,04.6,0000.0,0002.64,0001.17,0000.88
2021-11-07 06:57:00,,0823.7,4.99,0.00,29.9,29.0,00.0,39.0,31.6,04.6,0000.0,0002.69,0001.15,0000.87
2021-11-07 06:58:00,,0823.7,4.99,0.00,29.9,29.0,00.0,39.0,31.6,04.8,0000.0,0002.80,0001.17,0000.87
2021-11-07 06:59:00,,0823.7,5.00,0.00,29.9,29.0,00.0,39.0,31.6,04.7,0000.0,0002.76,0001.14,0000.87
